Time,TemperatureF,DewpointF,PressureIn,WindDirection,WindDirectionDegrees,WindSpeedMPH,WindSpeedGustMPH,Humidity,HourlyPrecipIn,Conditions,Clouds,dailyrainin,SoftwareType,DateUTC
2013-03-04 00:03:00,24.9,19.0,30.03,WNW,293,0.0,2.0,78,0.00,,,0.00,WUHU216HW,2013-03-04 05:03:00,
2013-03-04 00:40:00,24.9,19.4,30.03,West,270,0.0,0.0,79,0.00,,,0.00,WUHU216HW,2013-03-04 05:40:00,
2013-03-04 00:45:00,24.9,19.4,30.03,SSW,203,4.4,4.4,79,0.00,,,0.00,WUHU216HW,2013-03-04 05:45:00,
2013-03-04 00:51:00,24.9,19.4,30.03,West,270,0.0,4.4,79,0.00,,,0.00,WUHU216HW,2013-03-04 05:51:00,
2013-03-04 00:57:00,24.8,19.5,30.03,NW,315,0.0,4.4,80,0.00,,,0.00,WUHU216HW,2013-03-04 05:57:00,
2013-03-04 01:03:00,24.6,19.4,30.03,West,270,0.0,2.4,80,0.00,,,0.00,WUHU216HW,2013-03-04 06:03:00,
2013-03-04 01:09:00,24.6,19.4,30.04,WNW,293,0.0,2.4,80,0.00,,,0.00,WUHU216HW,2013-03-04 06:09:00,
2013-03-04 01:14:00,24.6,19.4,30.04,WSW,248,4.0,4.0,80,0.00,,,0.00,WUHU216HW,2013-03-04 06:14:00,
2013-03-04 01:20:00,24.6,19.4,30.04,WNW,293,4.2,4.2,80,0.00,,,0.00,WUHU216HW,2013-03-04 06:20:00,
2013-03-04 01:26:00,24.6,19.4,30.04,WNW,293,0.0,4.2,80,0.00,,,0.00,WUHU216HW,2013-03-04 06:26:00,
2013-03-04 01:31:00,24.6,19.4,30.04,WNW,293,0.0,4.2,80,0.00,,,0.00,WUHU216HW,2013-03-04 06:31:00,
2013-03-04 01:37:00,24.4,19.2,30.04,NW,315,0.0,0.0,80,0.00,,,0.00,WUHU216HW,2013-03-04 06:37:00,
2013-03-04 01:42:00,24.4,19.2,30.04,WNW,293,0.0,0.0,80,0.00,,,0.00,WUHU216HW,2013-03-04 06:42:00,
2013-03-04 01:48:00,24.4,19.2,30.04,West,270,2.0,2.0,80,0.00,,,0.00,WUHU216HW,2013-03-04 06:48:00,
2013-03-04 01:53:00,24.4,19.2,30.04,WNW,293,0.0,2.0,80,0.00,,,0.00,WUHU216HW,2013-03-04 06:53:00,
2013-03-04 01:59:00,24.2,19.0,30.05,SW,225,0.0,2.0,80,0.00,,,0.00,WUHU216HW,2013-03-04 06:59:00,
2013-03-04 02:04:00,24.0,18.5,30.04,WNW,293,0.0,0.0,79,0.00,,,0.00,WUHU216HW,2013-03-04 07:04:00,
2013-03-04 02:09:00,24.0,18.5,30.04,WSW,248,0.0,0.0,79,0.00,,,0.00,WUHU216HW,2013-03-04 07:09:00,
2013-03-04 02:15:00,24.0,18.5,30.04,West,270,0.0,0.0,79,0.00,,,0.00,WUHU216HW,2013-03-04 07:15:00,
2013-03-04 02:20:00,24.0,18.5,30.04,WNW,293,3.3,3.3,79,0.00,,,0.00,WUHU216HW,2013-03-04 07:20:00,
2013-03-04 02:26:00,23.9,18.3,30.05,SW,225,0.0,6.7,79,0.00,,,0.00,WUHU216HW,2013-03-04 07:26:00,
2013-03-04 02:32:00,24.0,18.5,30.05,WSW,248,0.0,6.7,79,0.00,,,0.00,WUHU216HW,2013-03-04 07:32:00,
2013-03-04 02:38:00,24.0,18.5,30.04,West,270,0.0,3.8,79,0.00,,,0.00,WUHU216HW,2013-03-04 07:38:00,
2013-03-04 02:43:00,24.0,18.5,30.05,SW,225,0.0,3.3,79,0.00,,,0.00,WUHU216HW,2013-03-04 07:43:00,
2013-03-04 02:48:00,24.0,18.5,30.04,West,270,0.0,5.3,79,0.00,,,0.00,WUHU216HW,2013-03-04 07:48:00,
2013-03-04 02:53:00,23.9,18.3,30.05,West,270,0.0,5.3,79,0.00,,,0.00,WUHU216HW,2013-03-04 07:53:00,
2013-03-04 02:58:00,23.9,18.3,30.05,WNW,293,0.0,3.3,79,0.00,,,0.00,WUHU216HW,2013-03-04 07:58:00,
2013-03-04 03:04:00,23.9,18.3,30.05,West,270,0.0,3.3,79,0.00,,,0.00,WUHU216HW,2013-03-04 08:04:00,
2013-03-04 03:10:00,23.9,18.3,30.05,West,270,0.0,0.0,79,0.00,,,0.00,WUHU216HW,2013-03-04 08:10:00,
2013-03-04 03:16:00,23.9,18.3,30.05,SSW,203,0.0,0.0,79,0.00,,,0.00,WUHU216HW,2013-03-04 08:16:00,
2013-03-04 03:21:00,23.9,18.3,30.05,West,270,0.0,5.1,79,0.00,,,0.00,WUHU216HW,2013-03-04 08:21:00,
2013-03-04 03:27:00,23.9,18.3,30.05,West,270,0.0,5.1,79,0.00,,,0.00,WUHU216HW,2013-03-04 08:27:00,
2013-03-04 03:32:00,23.9,18.3,30.05,West,270,0.0,0.0,79,0.00,,,0.00,WUHU216HW,2013-03-04 08:32:00,
2013-03-04 03:37:00,23.9,18.3,30.05,NW,315,0.0,0.0,79,0.00,,,0.00,WUHU216HW,2013-03-04 08:37:00,
2013-03-04 03:42:00,23.9,18.3,30.05,West,270,0.0,0.0,79,0.00,,,0.00,WUHU216HW,2013-03-04 08:42:00,
2013-03-04 03:49:00,23.9,18.0,30.06,SW,225,0.0,4.9,78,0.00,,,0.00,WUHU216HW,2013-03-04 08:49:00,
2013-03-04 03:54:00,23.9,18.0,30.06,West,270,0.0,4.9,78,0.00,,,0.00,WUHU216HW,2013-03-04 08:54:00,
2013-03-04 03:59:00,23.9,18.0,30.06,SSW,203,0.0,0.0,78,0.00,,,0.00,WUHU216HW,2013-03-04 08:59:00,
2013-03-04 04:05:00,23.9,18.0,30.06,WNW,293,0.0,0.0,78,0.00,,,0.00,WUHU216HW,2013-03-04 09:05:00,
2013-03-04 04:16:00,23.9,18.0,30.07,West,270,0.0,7.8,78,0.00,,,0.00,WUHU216HW,2013-03-04 09:16:00,
2013-03-04 04:21:00,23.9,18.0,30.07,West,270,0.0,7.8,78,0.00,,,0.00,WUHU216HW,2013-03-04 09:21:00,
2013-03-04 04:27:00,24.0,17.9,30.07,West,270,2.0,5.1,77,0.00,,,0.00,WUHU216HW,2013-03-04 09:27:00,
2013-03-04 04:37:00,23.9,17.7,30.07,WNW,293,0.0,4.0,77,0.00,,,0.00,WUHU216HW,2013-03-04 09:37:00,
2013-03-04 04:42:00,23.9,17.7,30.08,West,270,7.3,7.3,77,0.00,,,0.00,WUHU216HW,2013-03-04 09:42:00,
2013-03-04 04:49:00,23.9,17.7,30.08,West,270,0.0,7.3,77,0.00,,,0.00,WUHU216HW,2013-03-04 09:49:00,
2013-03-04 04:58:00,23.9,17.7,30.08,NW,315,0.0,3.1,77,0.00,,,0.00,WUHU216HW,2013-03-04 09:58:00,
2013-03-04 05:04:00,23.9,17.7,30.08,West,270,0.0,3.1,77,0.00,,,0.00,WUHU216HW,2013-03-04 10:04:00,
2013-03-04 05:09:00,23.9,17.7,30.08,WNW,293,0.0,0.0,77,0.00,,,0.00,WUHU216HW,2013-03-04 10:09:00,
2013-03-04 05:16:00,23.9,18.0,30.08,NW,315,0.0,0.0,78,0.00,,,0.00,WUHU216HW,2013-03-04 10:16:00,
2013-03-04 05:25:00,23.9,17.7,30.08,NNW,338,6.4,6.4,77,0.00,,,0.00,WUHU216HW,2013-03-04 10:25:00,
2013-03-04 05:31:00,23.9,17.4,30.09,West,270,6.0,7.6,76,0.00,,,0.00,WUHU216HW,2013-03-04 10:31:00,
2013-03-04 05:36:00,23.9,17.0,30.09,NW,315,7.1,7.6,75,0.00,,,0.00,WUHU216HW,2013-03-04 10:36:00,
2013-03-04 05:42:00,23.9,17.0,30.09,West,270,8.2,8.2,75,0.00,,,0.00,WUHU216HW,2013-03-04 10:42:00,
2013-03-04 05:47:00,23.7,16.9,30.09,WNW,293,0.0,8.2,75,0.00,,,0.00,WUHU216HW,2013-03-04 10:47:00,
2013-03-04 05:52:00,23.5,16.7,30.09,WNW,293,5.8,8.2,75,0.00,,,0.00,WUHU216HW,2013-03-04 10:52:00,
2013-03-04 05:58:00,23.5,16.7,30.09,NW,315,0.0,5.8,75,0.00,,,0.00,WUHU216HW,2013-03-04 10:58:00,
2013-03-04 06:03:00,23.5,16.4,30.10,WNW,293,5.3,5.8,74,0.00,,,0.00,WUHU216HW,2013-03-04 11:03:00,
2013-03-04 06:09:00,23.3,16.2,30.10,NNW,338,7.1,7.1,74,0.00,,,0.00,WUHU216HW,2013-03-04 11:09:00,
2013-03-04 06:15:00,23.1,16.2,30.10,NW,315,6.2,7.1,74,0.00,,,0.00,WUHU216HW,2013-03-04 11:15:00,
2013-03-04 06:21:00,23.1,16.1,30.10,NW,315,3.8,7.1,74,0.00,,,0.00,WUHU216HW,2013-03-04 11:21:00,
2013-03-04 06:27:00,23.1,16.1,30.11,NW,315,0.0,3.8,74,0.00,,,0.00,WUHU216HW,2013-03-04 11:27:00,
2013-03-04 06:33:00,23.1,16.1,30.11,NW,315,0.0,7.6,74,0.00,,,0.00,WUHU216HW,2013-03-04 11:33:00,
2013-03-04 06:38:00,23.1,16.1,30.11,WNW,293,0.0,7.6,74,0.00,,,0.00,WUHU216HW,2013-03-04 11:38:00,
2013-03-04 06:44:00,23.1,16.1,30.11,NW,315,0.0,0.0,74,0.00,,,0.00,WUHU216HW,2013-03-04 11:44:00,
2013-03-04 06:49:00,23.0,15.9,30.11,West,270,0.0,0.0,74,0.00,,,0.00,WUHU216HW,2013-03-04 11:49:00,
2013-03-04 06:54:00,22.8,15.7,30.11,WSW,248,0.0,0.0,74,0.00,,,0.00,WUHU216HW,2013-03-04 11:54:00,
2013-03-04 06:59:00,22.6,15.5,30.11,WSW,248,0.0,1.5,74,0.00,,,0.00,WUHU216HW,2013-03-04 11:59:00,
2013-03-04 07:05:00,22.4,15.7,30.12,West,270,0.0,1.5,75,0.00,,,0.00,WUHU216HW,2013-03-04 12:05:00,
2013-03-04 07:10:00,22.4,15.7,30.12,West,270,0.0,0.0,75,0.00,,,0.00,WUHU216HW,2013-03-04 12:10:00,
2013-03-04 07:15:00,22.4,15.7,30.12,WSW,248,0.0,0.0,75,0.00,,,0.00,WUHU216HW,2013-03-04 12:15:00,
2013-03-04 07:20:00,22.6,15.8,30.12,WSW,248,0.0,0.0,75,0.00,,,0.00,WUHU216HW,2013-03-04 12:20:00,
2013-03-04 07:26:00,22.8,16.0,30.13,West,270,0.0,0.0,75,0.00,,,0.00,WUHU216HW,2013-03-04 12:26:00,
2013-03-04 07:31:00,22.8,16.0,30.13,West,270,0.0,0.0,75,0.00,,,0.00,WUHU216HW,2013-03-04 12:31:00,
2013-03-04 07:36:00,23.0,16.2,30.13,WSW,248,0.0,0.0,75,0.00,,,0.00,WUHU216HW,2013-03-04 12:36:00,
2013-03-04 07:42:00,23.1,16.4,30.13,SSW,203,0.0,0.0,75,0.00,,,0.00,WUHU216HW,2013-03-04 12:42:00,
2013-03-04 07:48:00,23.5,16.7,30.13,SSW,203,0.0,0.0,75,0.00,,,0.00,WUHU216HW,2013-03-04 12:48:00,
2013-03-04 07:54:00,23.7,16.9,30.13,SW,225,0.0,0.0,75,0.00,,,0.00,WUHU216HW,2013-03-04 12:54:00,
2013-03-04 07:59:00,23.9,17.0,30.13,SSW,203,0.0,5.1,75,0.00,,,0.00,WUHU216HW,2013-03-04 12:59:00,
2013-03-04 08:05:00,24.2,17.4,30.14,West,270,0.0,5.1,75,0.00,,,0.00,WUHU216HW,2013-03-04 13:05:00,
2013-03-04 08:11:00,24.4,17.6,30.14,West,270,0.0,0.0,75,0.00,,,0.00,WUHU216HW,2013-03-04 13:11:00,
2013-03-04 08:16:00,24.6,17.4,30.14,SSW,203,0.0,0.0,74,0.00,,,0.00,WUHU216HW,2013-03-04 13:16:00,
2013-03-04 08:21:00,24.9,17.7,30.14,West,270,0.0,0.0,74,0.00,,,0.00,WUHU216HW,2013-03-04 13:21:00,
2013-03-04 08:26:00,25.3,18.1,30.14,WNW,293,0.0,3.5,74,0.00,,,0.00,WUHU216HW,2013-03-04 13:26:00,
2013-03-04 08:32:00,25.3,18.1,30.14,West,270,0.0,3.5,74,0.00,,,0.00,WUHU216HW,2013-03-04 13:32:00,
2013-03-04 08:37:00,25.8,18.6,30.14,WNW,293,0.0,5.8,74,0.00,,,0.00,WUHU216HW,2013-03-04 13:37:00,
2013-03-04 08:43:00,26.2,18.6,30.14,NW,315,3.8,5.8,73,0.00,,,0.00,WUHU216HW,2013-03-04 13:43:00,
2013-03-04 08:49:00,26.7,18.8,30.14,WNW,293,0.0,4.6,73,0.00,,,0.00,WUHU216HW,2013-03-04 13:49:00,
2013-03-04 08:55:00,27.3,19.7,30.14,West,270,5.8,5.8,73,0.00,,,0.00,WUHU216HW,2013-03-04 13:55:00,
2013-03-04 09:01:00,27.6,20.1,30.14,West,270,4.6,5.8,73,0.00,,,0.00,WUHU216HW,2013-03-04 14:01:00,
2013-03-04 09:06:00,27.6,19.8,30.14,NW,315,6.2,6.2,72,0.00,,,0.00,WUHU216HW,2013-03-04 14:06:00,
2013-03-04 09:11:00,27.6,19.5,30.15,WNW,293,5.3,6.2,71,0.00,,,0.00,WUHU216HW,2013-03-04 14:11:00,
2013-03-04 09:18:00,27.6,19.5,30.15,SW,225,0.0,5.3,71,0.00,,,0.00,WUHU216HW,2013-03-04 14:18:00,
2013-03-04 09:23:00,27.6,19.5,30.15,WNW,293,5.5,5.5,71,0.00,,,0.00,WUHU216HW,2013-03-04 14:23:00,
2013-03-04 09:29:00,28.0,19.8,30.15,WNW,293,0.0,5.5,71,0.00,,,0.00,WUHU216HW,2013-03-04 14:29:00,
2013-03-04 09:33:00,28.0,19.8,30.15,WNW,293,0.0,5.5,71,0.00,,,0.00,WUHU216HW,2013-03-04 14:33:00,
2013-03-04 09:40:00,28.2,20.0,30.15,SW,225,0.0,4.6,71,0.00,,,0.00,WUHU216HW,2013-03-04 14:40:00,
2013-03-04 09:45:00,28.2,20.0,30.15,West,270,0.0,5.8,71,0.00,,,0.00,WUHU216HW,2013-03-04 14:45:00,
2013-03-04 09:50:00,28.5,20.1,30.15,West,270,3.5,5.8,70,0.00,,,0.00,WUHU216HW,2013-03-04 14:50:00,
2013-03-04 09:55:00,28.5,20.1,30.15,WNW,293,0.0,3.5,70,0.00,,,0.00,WUHU216HW,2013-03-04 14:55:00,
2013-03-04 10:01:00,28.7,20.2,30.14,WNW,293,4.6,5.8,70,0.00,,,0.00,WUHU216HW,2013-03-04 15:01:00,
2013-03-04 10:06:00,28.7,20.2,30.14,WSW,248,0.0,5.8,70,0.00,,,0.00,WUHU216HW,2013-03-04 15:06:00,
2013-03-04 10:11:00,28.7,19.9,30.15,NW,315,9.6,9.6,69,0.00,,,0.00,WUHU216HW,2013-03-04 15:11:00,
2013-03-04 10:16:00,28.9,19.7,30.14,WNW,293,0.0,9.6,68,0.00,,,0.00,WUHU216HW,2013-03-04 15:16:00,
2013-03-04 10:22:00,29.1,19.8,30.14,WNW,293,8.5,9.6,68,0.00,,,0.00,WUHU216HW,2013-03-04 15:22:00,
2013-03-04 10:27:00,29.3,20.0,30.14,WNW,293,0.0,8.5,68,0.00,,,0.00,WUHU216HW,2013-03-04 15:27:00,
2013-03-04 10:33:00,29.4,20.1,30.14,West,270,0.0,10.5,68,0.00,,,0.00,WUHU216HW,2013-03-04 15:33:00,
2013-03-04 10:37:00,29.6,20.3,30.14,West,270,5.3,10.5,68,0.00,,,0.00,WUHU216HW,2013-03-04 15:37:00,
2013-03-04 10:42:00,30.0,20.3,30.14,West,270,0.0,7.1,67,0.00,,,0.00,WUHU216HW,2013-03-04 15:42:00,
2013-03-04 10:48:00,30.7,21.3,30.14,NW,315,0.0,5.3,68,0.00,,,0.00,WUHU216HW,2013-03-04 15:48:00,
2013-03-04 10:54:00,31.6,22.2,30.14,WSW,248,7.1,7.1,68,0.00,,,0.00,WUHU216HW,2013-03-04 15:54:00,
2013-03-04 10:59:00,32.0,21.9,30.14,WNW,293,4.9,7.1,66,0.00,,,0.00,WUHU216HW,2013-03-04 15:59:00,
2013-03-04 11:05:00,32.7,22.5,30.14,WSW,248,4.0,5.1,66,0.00,,,0.00,WUHU216HW,2013-03-04 16:05:00,
2013-03-04 11:11:00,33.0,22.5,30.13,SSW,203,0.0,5.1,65,0.00,,,0.00,WUHU216HW,2013-03-04 16:11:00,
2013-03-04 11:15:00,33.8,23.1,30.13,WNW,293,4.6,4.6,65,0.00,,,0.00,WUHU216HW,2013-03-04 16:15:00,
2013-03-04 11:21:00,34.1,23.1,30.13,West,270,0.0,4.6,64,0.00,,,0.00,WUHU216HW,2013-03-04 16:21:00,
2013-03-04 11:26:00,34.3,23.3,30.13,NW,315,0.0,5.8,64,0.00,,,0.00,WUHU216HW,2013-03-04 16:26:00,
2013-03-04 11:32:00,34.7,23.3,30.13,West,270,0.0,5.8,63,0.00,,,0.00,WUHU216HW,2013-03-04 16:32:00,
2013-03-04 11:38:00,34.3,22.6,30.13,NW,315,0.6,2.4,62,0.00,,,0.00,WUHU216HW,2013-03-04 16:38:00,
2013-03-04 11:43:00,34.8,23.1,30.12,WSW,248,0.0,9.8,62,0.00,,,0.00,WUHU216HW,2013-03-04 16:43:00,
2013-03-04 11:48:00,35.2,23.1,30.13,WSW,248,0.0,9.8,61,0.00,,,0.00,WUHU216HW,2013-03-04 16:48:00,
2013-03-04 11:54:00,35.2,23.5,30.12,West,270,0.0,5.5,62,0.00,,,0.00,WUHU216HW,2013-03-04 16:54:00,
2013-03-04 11:59:00,35.4,23.3,30.12,NW,315,2.4,8.9,61,0.00,,,0.00,WUHU216HW,2013-03-04 16:59:00,
2013-03-04 12:04:00,35.7,23.7,30.12,WNW,293,6.7,8.9,61,0.00,,,0.00,WUHU216HW,2013-03-04 17:04:00,
2013-03-04 12:09:00,35.7,23.7,30.12,WSW,248,0.0,6.7,61,0.00,,,0.00,WUHU216HW,2013-03-04 17:09:00,
2013-03-04 12:15:00,35.6,23.1,30.12,SW,225,4.2,5.5,60,0.00,,,0.00,WUHU216HW,2013-03-04 17:15:00,
2013-03-04 12:20:00,35.7,23.7,30.12,SW,225,1.5,10.5,60,0.00,,,0.00,WUHU216HW,2013-03-04 17:20:00,
2013-03-04 12:31:00,36.6,24.1,30.11,West,270,0.0,6.0,60,0.00,,,0.00,WUHU216HW,2013-03-04 17:31:00,
2013-03-04 12:37:00,37.4,24.8,30.11,WNW,293,0.0,6.0,60,0.00,,,0.00,WUHU216HW,2013-03-04 17:37:00,
2013-03-04 12:43:00,38.1,25.0,30.11,West,270,0.0,9.3,59,0.00,,,0.00,WUHU216HW,2013-03-04 17:43:00,
2013-03-04 12:49:00,38.3,24.7,30.10,North,0,5.1,9.3,58,0.00,,,0.00,WUHU216HW,2013-03-04 17:49:00,
2013-03-04 12:54:00,38.4,24.9,30.10,WNW,293,5.1,5.1,58,0.00,,,0.00,WUHU216HW,2013-03-04 17:54:00,
2013-03-04 13:00:00,38.6,24.6,30.10,WNW,293,5.3,5.3,57,0.00,,,0.00,WUHU216HW,2013-03-04 18:00:00,
2013-03-04 13:06:00,38.1,24.1,30.10,WSW,248,3.3,5.3,57,0.00,,,0.00,WUHU216HW,2013-03-04 18:06:00,
2013-03-04 13:11:00,38.8,24.8,30.10,SW,225,6.2,6.7,57,0.00,,,0.00,WUHU216HW,2013-03-04 18:11:00,
2013-03-04 13:17:00,39.3,24.8,30.10,SW,225,0.0,6.7,56,0.00,,,0.00,WUHU216HW,2013-03-04 18:17:00,
2013-03-04 13:22:00,39.3,24.8,30.10,NW,315,0.0,6.9,56,0.00,,,0.00,WUHU216HW,2013-03-04 18:22:00,
2013-03-04 13:28:00,39.5,24.6,30.09,WSW,248,0.0,6.9,55,0.00,,,0.00,WUHU216HW,2013-03-04 18:28:00,
2013-03-04 13:33:00,39.9,24.9,30.09,WNW,293,10.5,10.5,55,0.00,,,0.00,WUHU216HW,2013-03-04 18:33:00,
2013-03-04 13:39:00,39.7,24.7,30.09,SSW,203,2.2,10.5,55,0.00,,,0.00,WUHU216HW,2013-03-04 18:39:00,
2013-03-04 13:44:00,40.6,26.0,30.09,NNW,338,6.0,10.5,56,0.00,,,0.00,WUHU216HW,2013-03-04 18:44:00,
2013-03-04 13:49:00,40.8,25.7,30.08,West,270,0.0,7.8,55,0.00,,,0.00,WUHU216HW,2013-03-04 18:49:00,
2013-03-04 13:55:00,40.6,25.6,30.08,WNW,293,5.8,6.0,55,0.00,,,0.00,WUHU216HW,2013-03-04 18:55:00,
2013-03-04 14:00:00,40.8,25.7,30.08,WSW,248,0.0,5.8,55,0.00,,,0.00,WUHU216HW,2013-03-04 19:00:00,
2013-03-04 14:06:00,41.3,25.8,30.08,West,270,2.4,5.8,54,0.00,,,0.00,WUHU216HW,2013-03-04 19:06:00,
2013-03-04 14:12:00,41.1,26.1,30.08,WSW,248,2.6,2.6,55,0.00,,,0.00,WUHU216HW,2013-03-04 19:12:00,
2013-03-04 14:17:00,41.3,25.8,30.08,WSW,248,2.2,2.6,54,0.00,,,0.00,WUHU216HW,2013-03-04 19:17:00,
2013-03-04 14:23:00,41.5,25.5,30.08,WSW,248,0.0,4.2,53,0.00,,,0.00,WUHU216HW,2013-03-04 19:23:00,
2013-03-04 14:28:00,41.5,25.5,30.08,NW,315,0.0,4.2,53,0.00,,,0.00,WUHU216HW,2013-03-04 19:28:00,
2013-03-04 14:34:00,41.0,25.0,30.08,WSW,248,0.0,14.9,53,0.00,,,0.00,WUHU216HW,2013-03-04 19:34:00,
2013-03-04 14:40:00,41.1,25.6,30.08,WSW,248,0.0,14.9,54,0.00,,,0.00,WUHU216HW,2013-03-04 19:40:00,
2013-03-04 14:45:00,41.3,25.4,30.08,WSW,248,0.0,5.1,53,0.00,,,0.00,WUHU216HW,2013-03-04 19:45:00,
2013-03-04 14:50:00,41.3,25.4,30.08,WSW,248,8.2,8.2,53,0.00,,,0.00,WUHU216HW,2013-03-04 19:50:00,
2013-03-04 15:01:00,42.0,26.1,30.08,SW,225,0.0,8.2,53,0.00,,,0.00,WUHU216HW,2013-03-04 20:01:00,
2013-03-04 15:06:00,42.4,26.4,30.08,WSW,248,2.2,2.2,53,0.00,,,0.00,WUHU216HW,2013-03-04 20:06:00,
2013-03-04 15:11:00,42.4,26.4,30.08,WSW,248,11.4,11.4,53,0.00,,,0.00,WUHU216HW,2013-03-04 20:11:00,
2013-03-04 15:17:00,42.8,26.8,30.07,WSW,248,0.0,11.4,53,0.00,,,0.00,WUHU216HW,2013-03-04 20:17:00,
2013-03-04 15:23:00,42.6,25.7,30.07,WSW,248,0.0,9.1,51,0.00,,,0.00,WUHU216HW,2013-03-04 20:23:00,
2013-03-04 15:29:00,42.4,26.0,30.07,WSW,248,0.0,9.1,52,0.00,,,0.00,WUHU216HW,2013-03-04 20:29:00,
2013-03-04 15:34:00,42.4,25.5,30.07,WSW,248,0.0,5.3,51,0.00,,,0.00,WUHU216HW,2013-03-04 20:34:00,
2013-03-04 15:39:00,42.0,25.2,30.07,WSW,248,5.5,5.5,51,0.00,,,0.00,WUHU216HW,2013-03-04 20:39:00,
2013-03-04 15:45:00,41.7,24.8,30.07,WSW,248,1.3,5.5,51,0.00,,,0.00,WUHU216HW,2013-03-04 20:45:00,
2013-03-04 15:50:00,41.1,24.3,30.07,WSW,248,0.0,5.5,51,0.00,,,0.00,WUHU216HW,2013-03-04 20:50:00,
2013-03-04 15:56:00,41.1,24.3,30.07,WSW,248,0.0,6.0,51,0.00,,,0.00,WUHU216HW,2013-03-04 20:56:00,
2013-03-04 16:02:00,41.3,24.9,30.07,WSW,248,8.2,8.2,52,0.00,,,0.00,WUHU216HW,2013-03-04 21:02:00,
2013-03-04 16:08:00,41.7,25.3,30.07,WSW,248,0.0,9.8,52,0.00,,,0.00,WUHU216HW,2013-03-04 21:08:00,
2013-03-04 16:14:00,41.7,25.3,30.07,WSW,248,2.9,9.8,52,0.00,,,0.00,WUHU216HW,2013-03-04 21:14:00,
2013-03-04 16:19:00,41.5,24.6,30.07,WSW,248,0.0,6.2,51,0.00,,,0.00,WUHU216HW,2013-03-04 21:19:00,
2013-03-04 16:24:00,41.1,24.7,30.06,WSW,248,3.1,3.1,52,0.00,,,0.00,WUHU216HW,2013-03-04 21:24:00,
2013-03-04 16:29:00,41.1,24.3,30.07,WSW,248,0.0,3.1,51,0.00,,,0.00,WUHU216HW,2013-03-04 21:29:00,
2013-03-04 16:34:00,40.8,23.9,30.07,WSW,248,0.0,3.3,51,0.00,,,0.00,WUHU216HW,2013-03-04 21:34:00,
2013-03-04 16:40:00,40.8,24.4,30.07,WSW,248,0.0,3.3,52,0.00,,,0.00,WUHU216HW,2013-03-04 21:40:00,
2013-03-04 16:46:00,40.8,24.4,30.07,WSW,248,0.0,1.5,52,0.00,,,0.00,WUHU216HW,2013-03-04 21:46:00,
2013-03-04 16:51:00,40.6,24.2,30.07,WSW,248,0.0,1.1,52,0.00,,,0.00,WUHU216HW,2013-03-04 21:51:00,
2013-03-04 16:57:00,40.1,23.7,30.07,WNW,293,0.0,2.2,52,0.00,,,0.00,WUHU216HW,2013-03-04 21:57:00,
2013-03-04 17:02:00,39.9,23.6,30.07,West,270,0.0,2.2,52,0.00,,,0.00,WUHU216HW,2013-03-04 22:02:00,
2013-03-04 17:08:00,39.3,23.1,30.07,NNW,338,3.3,6.2,52,0.00,,,0.00,WUHU216HW,2013-03-04 22:08:00,
2013-03-04 17:13:00,39.0,22.8,30.07,NW,315,3.3,6.2,52,0.00,,,0.00,WUHU216HW,2013-03-04 22:13:00,
2013-03-04 17:18:00,38.4,22.3,30.07,NW,315,0.0,3.5,52,0.00,,,0.00,WUHU216HW,2013-03-04 22:18:00,
2013-03-04 17:24:00,38.1,22.4,30.07,NW,315,0.0,3.8,53,0.00,,,0.00,WUHU216HW,2013-03-04 22:24:00,
2013-03-04 17:30:00,37.9,22.2,30.07,West,270,0.0,3.8,53,0.00,,,0.00,WUHU216HW,2013-03-04 22:30:00,
2013-03-04 17:35:00,37.7,22.1,30.08,West,270,0.0,0.0,53,0.00,,,0.00,WUHU216HW,2013-03-04 22:35:00,
2013-03-04 17:41:00,37.5,21.9,30.08,WNW,293,0.0,0.0,53,0.00,,,0.00,WUHU216HW,2013-03-04 22:41:00,
2013-03-04 17:46:00,37.4,22.2,30.08,WSW,248,0.0,0.0,54,0.00,,,0.00,WUHU216HW,2013-03-04 22:46:00,
2013-03-04 17:52:00,37.2,22.0,30.08,WSW,248,0.0,0.0,54,0.00,,,0.00,WUHU216HW,2013-03-04 22:52:00,
2013-03-04 17:58:00,37.0,21.8,30.08,WSW,248,0.0,0.0,54,0.00,,,0.00,WUHU216HW,2013-03-04 22:58:00,
2013-03-04 18:04:00,36.5,21.3,30.08,WSW,248,0.0,2.2,54,0.00,,,0.00,WUHU216HW,2013-03-04 23:04:00,
2013-03-04 18:09:00,36.3,21.5,30.08,West,270,0.0,2.2,55,0.00,,,0.00,WUHU216HW,2013-03-04 23:09:00,
2013-03-04 18:15:00,35.9,21.3,30.08,West,270,0.0,0.0,55,0.00,,,0.00,WUHU216HW,2013-03-04 23:15:00,
2013-03-04 18:20:00,35.4,20.8,30.08,WSW,248,0.0,0.0,55,0.00,,,0.00,WUHU216HW,2013-03-04 23:20:00,
2013-03-04 18:25:00,35.2,21.0,30.08,WSW,248,0.0,0.0,56,0.00,,,0.00,WUHU216HW,2013-03-04 23:25:00,
2013-03-04 18:31:00,34.8,20.7,30.08,West,270,0.0,0.0,56,0.00,,,0.00,WUHU216HW,2013-03-04 23:31:00,
2013-03-04 18:36:00,34.3,20.1,30.08,West,270,0.0,0.0,56,0.00,,,0.00,WUHU216HW,2013-03-04 23:36:00,
2013-03-04 18:42:00,33.9,20.2,30.08,West,270,0.0,0.0,57,0.00,,,0.00,WUHU216HW,2013-03-04 23:42:00,
2013-03-04 18:47:00,33.6,19.9,30.08,West,270,0.0,0.0,57,0.00,,,0.00,WUHU216HW,2013-03-04 23:47:00,
2013-03-04 18:52:00,33.0,19.8,30.08,West,270,0.0,0.0,58,0.00,,,0.00,WUHU216HW,2013-03-04 23:52:00,
2013-03-04 18:58:00,32.9,19.7,30.09,West,270,0.0,0.0,58,0.00,,,0.00,WUHU216HW,2013-03-04 23:58:00,
2013-03-04 19:03:00,32.5,19.8,30.09,West,270,0.0,0.0,59,0.00,,,0.00,WUHU216HW,2013-03-05 00:03:00,
2013-03-04 19:08:00,32.1,19.4,30.09,West,270,0.0,0.0,59,0.00,,,0.00,WUHU216HW,2013-03-05 00:08:00,
2013-03-04 19:14:00,31.8,19.5,30.09,West,270,0.0,0.0,60,0.00,,,0.00,WUHU216HW,2013-03-05 00:14:00,
2013-03-04 19:19:00,31.8,19.5,30.09,West,270,0.0,0.0,60,0.00,,,0.00,WUHU216HW,2013-03-05 00:19:00,
2013-03-04 19:24:00,31.4,19.5,30.09,West,270,0.0,0.0,61,0.00,,,0.00,WUHU216HW,2013-03-05 00:24:00,
2013-03-04 19:29:00,31.2,19.4,30.09,West,270,0.0,0.0,61,0.00,,,0.00,WUHU216HW,2013-03-05 00:29:00,
2013-03-04 19:34:00,31.1,19.2,30.09,West,270,0.0,0.0,61,0.00,,,0.00,WUHU216HW,2013-03-05 00:34:00,
2013-03-04 19:39:00,30.7,18.8,30.09,West,270,0.0,0.0,61,0.00,,,0.00,WUHU216HW,2013-03-05 00:39:00,
2013-03-04 19:45:00,30.7,18.8,30.09,West,270,0.0,0.0,61,0.00,,,0.00,WUHU216HW,2013-03-05 00:45:00,
2013-03-04 19:50:00,30.5,19.0,30.09,West,270,0.0,0.0,62,0.00,,,0.00,WUHU216HW,2013-03-05 00:50:00,
2013-03-04 19:56:00,30.3,19.2,30.09,West,270,0.0,0.0,63,0.00,,,0.00,WUHU216HW,2013-03-05 00:56:00,
2013-03-04 20:02:00,30.2,19.0,30.09,West,270,0.0,0.0,63,0.00,,,0.00,WUHU216HW,2013-03-05 01:02:00,
2013-03-04 20:07:00,30.0,18.8,30.09,West,270,0.0,0.0,63,0.00,,,0.00,WUHU216HW,2013-03-05 01:07:00,
2013-03-04 20:12:00,30.0,18.8,30.09,West,270,0.0,0.0,63,0.00,,,0.00,WUHU216HW,2013-03-05 01:12:00,
2013-03-04 20:18:00,29.8,18.7,30.09,West,270,0.0,0.0,63,0.00,,,0.00,WUHU216HW,2013-03-05 01:18:00,
2013-03-04 20:24:00,29.6,18.9,30.09,West,270,0.0,0.0,64,0.00,,,0.00,WUHU216HW,2013-03-05 01:24:00,
2013-03-04 20:30:00,29.4,18.7,30.09,West,270,0.0,0.0,64,0.00,,,0.00,WUHU216HW,2013-03-05 01:30:00,
2013-03-04 20:35:00,29.1,18.4,30.09,West,270,0.0,0.0,64,0.00,,,0.00,WUHU216HW,2013-03-05 01:35:00,
2013-03-04 20:40:00,28.9,18.6,30.09,West,270,0.0,0.0,65,0.00,,,0.00,WUHU216HW,2013-03-05 01:40:00,
2013-03-04 20:45:00,28.7,18.4,30.09,West,270,0.0,0.0,65,0.00,,,0.00,WUHU216HW,2013-03-05 01:45:00,
2013-03-04 20:51:00,28.5,18.3,30.09,West,270,0.0,0.0,65,0.00,,,0.00,WUHU216HW,2013-03-05 01:51:00,
2013-03-04 20:56:00,28.2,17.9,30.09,West,270,0.0,0.0,65,0.00,,,0.00,WUHU216HW,2013-03-05 01:56:00,
2013-03-04 21:01:00,28.0,18.1,30.09,West,270,0.0,0.0,66,0.00,,,0.00,WUHU216HW,2013-03-05 02:01:00,
2013-03-04 21:06:00,28.0,18.1,30.09,West,270,0.0,0.0,66,0.00,,,0.00,WUHU216HW,2013-03-05 02:06:00,
2013-03-04 21:12:00,27.6,18.1,30.09,West,270,0.0,0.0,67,0.00,,,0.00,WUHU216HW,2013-03-05 02:12:00,
2013-03-04 21:18:00,27.5,17.9,30.09,West,270,0.0,0.0,67,0.00,,,0.00,WUHU216HW,2013-03-05 02:18:00,
2013-03-04 21:24:00,27.3,17.7,30.09,West,270,0.0,0.0,67,0.00,,,0.00,WUHU216HW,2013-03-05 02:24:00,
2013-03-04 21:30:00,27.1,17.9,30.10,West,270,0.0,0.0,68,0.00,,,0.00,WUHU216HW,2013-03-05 02:30:00,
2013-03-04 21:35:00,26.9,17.7,30.09,West,270,0.0,0.0,68,0.00,,,0.00,WUHU216HW,2013-03-05 02:35:00,
2013-03-04 21:41:00,26.6,17.7,30.10,West,270,0.0,0.0,69,0.00,,,0.00,WUHU216HW,2013-03-05 02:41:00,
2013-03-04 21:46:00,26.4,17.6,30.10,West,270,0.0,0.0,69,0.00,,,0.00,WUHU216HW,2013-03-05 02:46:00,
2013-03-04 21:51:00,26.4,17.6,30.10,West,270,0.0,0.0,69,0.00,,,0.00,WUHU216HW,2013-03-05 02:51:00,
2013-03-04 21:57:00,26.2,17.4,30.10,West,270,0.0,0.0,69,0.00,,,0.00,WUHU216HW,2013-03-05 02:57:00,
2013-03-04 22:03:00,26.0,17.2,30.10,West,270,0.0,0.0,69,0.00,,,0.00,WUHU216HW,2013-03-05 03:03:00,
2013-03-04 22:08:00,25.8,17.4,30.10,West,270,0.0,0.0,70,0.00,,,0.00,WUHU216HW,2013-03-05 03:08:00,
2013-03-04 22:13:00,25.7,17.2,30.10,West,270,0.0,0.0,70,0.00,,,0.00,WUHU216HW,2013-03-05 03:13:00,
2013-03-04 22:19:00,25.5,17.0,30.10,West,270,0.0,0.0,70,0.00,,,0.00,WUHU216HW,2013-03-05 03:19:00,
2013-03-04 22:25:00,25.3,16.8,30.10,West,270,0.0,0.0,70,0.00,,,0.00,WUHU216HW,2013-03-05 03:25:00,
2013-03-04 22:30:00,24.9,16.8,30.10,West,270,0.0,0.0,71,0.00,,,0.00,WUHU216HW,2013-03-05 03:30:00,
2013-03-04 22:36:00,24.9,16.8,30.10,West,270,0.0,0.0,71,0.00,,,0.00,WUHU216HW,2013-03-05 03:36:00,
2013-03-04 22:42:00,24.9,16.8,30.10,West,270,0.0,0.0,71,0.00,,,0.00,WUHU216HW,2013-03-05 03:42:00,
2013-03-04 22:48:00,24.9,17.1,30.10,West,270,0.0,0.0,72,0.00,,,0.00,WUHU216HW,2013-03-05 03:48:00,
2013-03-04 22:53:00,24.6,16.8,30.09,West,270,0.0,0.0,72,0.00,,,0.00,WUHU216HW,2013-03-05 03:53:00,
2013-03-04 22:59:00,24.6,16.8,30.09,West,270,0.0,0.0,72,0.00,,,0.00,WUHU216HW,2013-03-05 03:59:00,
2013-03-04 23:04:00,24.6,16.8,30.10,West,270,0.0,0.0,72,0.00,,,0.00,WUHU216HW,2013-03-05 04:04:00,
2013-03-04 23:09:00,24.6,16.8,30.10,West,270,0.0,0.0,72,0.00,,,0.00,WUHU216HW,2013-03-05 04:09:00,
2013-03-04 23:15:00,24.6,16.8,30.10,West,270,0.0,0.0,72,0.00,,,0.00,WUHU216HW,2013-03-05 04:15:00,
2013-03-04 23:20:00,24.6,17.1,30.09,West,270,0.0,0.0,73,0.00,,,0.00,WUHU216HW,2013-03-05 04:20:00,
2013-03-04 23:25:00,24.4,16.9,30.09,West,270,0.0,0.0,73,0.00,,,0.00,WUHU216HW,2013-03-05 04:25:00,
2013-03-04 23:30:00,24.4,16.9,30.09,West,270,0.0,0.0,73,0.00,,,0.00,WUHU216HW,2013-03-05 04:30:00,
2013-03-04 23:35:00,24.4,16.9,30.09,West,270,0.0,0.0,73,0.00,,,0.00,WUHU216HW,2013-03-05 04:35:00,
2013-03-04 23:41:00,24.4,16.9,30.10,West,270,0.0,0.0,73,0.00,,,0.00,WUHU216HW,2013-03-05 04:41:00,
2013-03-04 23:47:00,24.4,16.9,30.09,West,270,0.0,0.0,73,0.00,,,0.00,WUHU216HW,2013-03-05 04:47:00,
2013-03-04 23:52:00,24.0,16.9,30.10,West,270,0.0,0.0,74,0.00,,,0.00,WUHU216HW,2013-03-05 04:52:00,
2013-03-04 23:58:00,24.0,16.9,30.09,West,270,0.0,0.0,74,0.00,,,0.00,WUHU216HW,2013-03-05 04:58:00,